STARLINK-32922, 62926

Orbit data source: Space-Track

STARLINK-32922, 62926 is a payload satellite owned by SpaceX/Seattle (US) in LEO that was launched on Sat, 08 Feb 2025 UTC via an FALCON 9 launch vehicle from the Air Force Eastern Test Range (AFETR). Payload-class satellites include a variety of spacecraft equipped with specific instruments for various scientific and technological missions. These include communications satellites like Starlink; space stations such as the ISS; scientific satellites like the Hubble; Earth observation satellites from companies like Planet Labs, Umbra, and HawkEye 360; GPS; miniature CubeSats for education and research; and military/defense satellites.

Loading next visibility...
Identifier
62926, 2025-027V
Orbit
LEO
Country
Flag of USUS
Related business
Manufacturer
SpaceX/Seattle
Mission
Operational Commercial Communications
Bus & Motor
STARLINK V2M, Unknown motor
Mass
730 kg wet, ~700 kg dry
Launch date (UTC)
2025-02-08 (8 months ago)
Launch vehicle
FALCON 9
Launch site
Air Force Eastern Test Range (AFETR)
Object type
Payload
Rocket body
Debris
Shape & HBR
Box + 2 Pan, 17.7 m
Radar Cross Section
33.884 m², Large (>1 m²)

Expand to show TLE details & history
Last TLE update: 13 hours ago

TLE from 13 hours ago
0 STARLINK-32922
1 62926U 25027V   25287.89845290  .00025463  00000-0  93224-3 0  9993
2 62926  43.0041 232.3729 0001623 269.6744  90.3921 15.27559283 39246
Epoch: 2025-10-14T21:33Z
TLE epoch observation values (Epoch: 2025-10-14T21:33:46.330Z)
Latitude
-0.00007°
Longitude
-114.75049°
Altitude
482.895 km
Speed
7.626 km/s
True Right ascension
15h 29m 29s
True Declination
0° 00' 00"
Sunlit
Object was in daylight at epoch
Visualization orbit readout
Latitude
Unknown
Longitude
Unknown
Altitude
Unknown
Speed
Unknown
Apparent Right ascension
Unknown
Apparent Declination
Unknown
Sunlit
N/A
Visualization observer readout
Local Sidereal Time
05:15:39
Azimuth
Unknown
Elevation
Unknown
Doppler factor
Unknown
Orbital elements
Apogee altitude
486.169 km
Perigee altitude
483.942 km
Semi-major axis
6,863.193 km
Eccentricity
0.00016
Inclination
43.0041°
RAAN
232.3729°
Arg. of periapsis
269.6744°
True anomaly
90.4107°
Mean anomaly
90.3921°
Eccentric anomaly
90.4014°
Mean motion
3.81728 °/min
Orbital period
94.31 mins
BSTAR
0.00093224
Loading maneuver chart data...
Computing Atmospheric mass density...
Loading historical data...
Loading historical data...
Loading historical data...
Loading historical data...
Loading historical data...
Loading historical data...
Loading historical data...

Documentation

Showing up to 5 results
|